Location: Arlington
(31.4185°N, 90.5568°W)
Time: 11:52:17
(UTC+00:00)

Nauka - Pass Details

Date: 07 October 2021
Orbit: 417 x 423 km, 51.6° (Epoch: 17 October)

Event Time Altitude Azimuth Distance (km) Brightness Sun altitude
Rises 01:23:56 0° 307° (NW) 2,358 ? -22.8°
Reaches altitude 10° 01:26:06 10° 300° (WNW) 1,493 ? -23.3°
Enters shadow 01:28:54 38° 248° (WSW) 655 ? -23.9°
